Weather History for KORC - January, 2013

Change the Weather History Date:

Wednesday, January 30, 2013

  Actual Average Record
Temperature  
Mean Temperature 14 °F -  
Max Temperature 24 °F 28 °F 51 °F (2012)
Min Temperature 3 °F 13 °F -17 °F (1951)
Degree Days  
Heating Degree Days 50    
Moisture  
Dew Point 10 °F    
Average Humidity 75    
Maximum Humidity 85    
Minimum Humidity 68    
Precipitation  
Precipitation 0.00 in - - ()
Sea Level Pressure  
Sea Level Pressure 29.78 in    
Wind  
Wind Speed 19 mph (NNW)    
Max Wind Speed 25 mph    
Max Gust Speed 34 mph    
Visibility 10 miles    
Events Snow    
Averages and records for this station are not official NWS values.
T = Trace of Precipitation, MM = Missing Value Source: NWS Daily Summary

Daily Weather History Graph

Daily Weather History Graph

Search for Another Location

Airport or City:

Trip Planner

Search our weather history database for the weather conditions in past years. The results will help you decide how hot, cold, wet, or windy it might be!

Date:

Astronomy

Jan. 30, 2013 Rise Set
Actual Time 7:41 AM CST 5:34 PM CST
Civil Twilight 7:10 AM CST 6:04 PM CST
Nautical Twilight 6:36 AM CST 6:39 PM CST
Astronomical Twilight 6:03 AM CST 7:12 PM CST
Moon 9:42 PM CST (1/30) 9:02 AM CST (1/30)
Length of Visible Light 10h 54m
Length of Day
9h 53m
Waning Gibbous, 87% of the Moon is Illuminated
Jan 30
Waning Gibbous
Feb 3
Last Quarter
Feb 10
New
Feb 17
First Quarter
Feb 25
Full

Hourly Weather History & Observations

Time (CST) Temp. Windchill Dew Point Humidity Pressure Visibility Wind Dir Wind Speed Gust Speed Precip Events Conditions
12:15 AM 24.8 °F 10.7 °F 19.4 °F 80% 29.75 in 10.0 mi North 19.6 mph 28.8 mph N/A   Overcast
12:35 AM 24.8 °F 11.1 °F 19.4 °F 80% 29.71 in 10.0 mi North 18.4 mph 31.1 mph N/A   Overcast
12:55 AM 24.8 °F 10.0 °F 19.4 °F 80% 29.70 in 10.0 mi North 21.9 mph 31.1 mph N/A   Overcast
1:15 AM 24.8 °F 10.0 °F 17.6 °F 74% 29.73 in 10.0 mi North 21.9 mph 29.9 mph N/A   Overcast
1:35 AM 23.0 °F 7.2 °F 15.8 °F 74% 29.73 in 10.0 mi North 23.0 mph 29.9 mph N/A   Overcast
1:55 AM 23.0 °F 8.3 °F 15.8 °F 74% 29.71 in 10.0 mi North 19.6 mph 31.1 mph N/A   Overcast
2:15 AM 21.2 °F 6.0 °F 15.8 °F 80% 29.71 in 10.0 mi North 19.6 mph 33.4 mph N/A   Overcast
2:35 AM 21.2 °F 5.2 °F 14.0 °F 74% 29.72 in 10.0 mi North 21.9 mph 34.5 mph N/A   Overcast
2:55 AM 21.2 °F 5.2 °F 15.8 °F 80% 29.74 in 10.0 mi North 21.9 mph 29.9 mph N/A   Overcast
3:15 AM 21.2 °F 7.8 °F 15.8 °F 80% 29.74 in 10.0 mi North 15.0 mph 21.9 mph N/A   Overcast
3:35 AM 21.2 °F 7.8 °F 15.8 °F 80% 29.75 in 10.0 mi North 15.0 mph 34.5 mph N/A   Overcast
3:55 AM 21.2 °F 6.4 °F 15.8 °F 80% 29.75 in 10.0 mi North 18.4 mph 25.3 mph N/A   Overcast
4:15 AM 21.2 °F 6.4 °F 14.0 °F 74% 29.74 in 10.0 mi North 18.4 mph 29.9 mph N/A   Overcast
4:35 AM 21.2 °F 6.0 °F 14.0 °F 74% 29.73 in 10.0 mi North 19.6 mph 28.8 mph N/A   Overcast
4:55 AM 21.2 °F 5.2 °F 15.8 °F 80% 29.73 in 10.0 mi NNW 21.9 mph 27.6 mph N/A   Overcast
5:15 AM 19.4 °F 3.6 °F 12.2 °F 74% 29.73 in 10.0 mi North 19.6 mph 31.1 mph N/A   Overcast
5:35 AM 21.2 °F 6.0 °F 15.8 °F 80% 29.72 in 10.0 mi NNW 19.6 mph 26.5 mph N/A   Mostly Cloudy
5:55 AM 19.4 °F 4.5 °F 12.2 °F 74% 29.73 in 10.0 mi North 17.3 mph 28.8 mph N/A   Scattered Clouds
6:15 AM 19.4 °F 4.5 °F 12.2 °F 74% 29.74 in 10.0 mi NNW 17.3 mph 25.3 mph N/A   Mostly Cloudy
6:35 AM 19.4 °F 4.1 °F 12.2 °F 74% 29.75 in 10.0 mi North 18.4 mph 28.8 mph N/A   Overcast
6:55 AM 19.4 °F 4.5 °F 12.2 °F 74% 29.75 in 10.0 mi NNW 17.3 mph 27.6 mph N/A   Overcast
7:15 AM 19.4 °F 3.2 °F 12.2 °F 74% 29.76 in 10.0 mi NNW 20.7 mph 28.8 mph N/A   Overcast
7:35 AM 17.6 °F 2.7 °F 10.4 °F 73% 29.76 in 10.0 mi NNW 16.1 mph 26.5 mph N/A   Overcast
7:55 AM 19.4 °F 6.6 °F 12.2 °F 74% 29.77 in 10.0 mi NNW 12.7 mph 23.0 mph N/A   Overcast
8:15 AM 17.6 °F 0.9 °F 10.4 °F 73% 29.77 in 10.0 mi NNW 20.7 mph 27.6 mph N/A   Overcast
8:35 AM 17.6 °F 1.7 °F 10.4 °F 73% 29.77 in 10.0 mi NNW 18.4 mph 29.9 mph N/A   Overcast
8:55 AM 17.6 °F 2.2 °F 12.2 °F 79% 29.78 in 7.0 mi NNW 17.3 mph 24.2 mph N/A Snow Light Snow
9:15 AM 19.4 °F 3.2 °F 12.2 °F 74% 29.78 in 5.0 mi NW 20.7 mph 26.5 mph N/A Snow Light Snow
9:35 AM 17.6 °F 0.9 °F 10.4 °F 73% 29.78 in 10.0 mi NNW 20.7 mph 29.9 mph N/A Snow Light Snow
9:55 AM 17.6 °F 0.9 °F 10.4 °F 73% 29.79 in 10.0 mi NNW 20.7 mph 29.9 mph N/A Snow Light Snow
10:15 AM 19.4 °F 3.6 °F 10.4 °F 68% 29.79 in 7.0 mi NNW 19.6 mph 26.5 mph N/A Snow Light Snow
10:35 AM 19.4 °F 3.6 °F 12.2 °F 74% 29.79 in 10.0 mi NW 19.6 mph 28.8 mph N/A   Overcast
10:55 AM 19.4 °F 4.1 °F 12.2 °F 74% 29.79 in 4.0 mi NNW 18.4 mph 24.2 mph N/A Snow Light Snow
11:15 AM 19.4 °F 3.6 °F 12.2 °F 74% 29.79 in 7.0 mi NNW 19.6 mph 29.9 mph N/A Snow Light Snow
11:35 AM 19.4 °F 3.6 °F 12.2 °F 74% 29.79 in 10.0 mi NW 19.6 mph 26.5 mph N/A   Overcast
11:55 AM 19.4 °F 2.8 °F 10.4 °F 68% 29.78 in 10.0 mi NNW 21.9 mph 28.8 mph N/A   Overcast
12:15 PM 19.4 °F 4.1 °F 12.2 °F 74% 29.78 in 10.0 mi NNW 18.4 mph 28.8 mph N/A   Overcast
12:35 PM 19.4 °F 3.6 °F 10.4 °F 68% 29.79 in 10.0 mi NW 19.6 mph 27.6 mph N/A   Overcast
12:55 PM 19.4 °F 4.5 °F 10.4 °F 68% 29.78 in 10.0 mi NNW 17.3 mph 23.0 mph N/A   Overcast
1:15 PM 19.4 °F 5.5 °F 10.4 °F 68% 29.78 in 10.0 mi NNW 15.0 mph 20.7 mph N/A   Overcast
1:35 PM 19.4 °F 3.2 °F 10.4 °F 68% 29.77 in 10.0 mi NW 20.7 mph 27.6 mph N/A   Overcast
1:55 PM 19.4 °F 6.0 °F 10.4 °F 68% 29.77 in 10.0 mi NW 13.8 mph 23.0 mph N/A   Overcast
2:15 PM 19.4 °F 3.6 °F 12.2 °F 74% 29.76 in 10.0 mi WNW 19.6 mph 24.2 mph N/A   Overcast
2:35 PM 19.4 °F 5.0 °F 10.4 °F 68% 29.77 in 10.0 mi NW 16.1 mph 25.3 mph N/A   Overcast
2:55 PM 19.4 °F 5.0 °F 10.4 °F 68% 29.77 in 10.0 mi NW 16.1 mph 24.2 mph N/A   Overcast
3:15 PM 19.4 °F 1.8 °F 10.4 °F 68% 29.77 in 10.0 mi NW 25.3 mph - N/A   Overcast
3:35 PM 17.6 °F 0.1 °F 10.4 °F 73% 29.78 in 10.0 mi NW 23.0 mph 28.8 mph N/A Snow Light Snow
3:55 PM 17.6 °F 1.3 °F 10.4 °F 73% 29.78 in 10.0 mi NW 19.6 mph 28.8 mph N/A   Overcast
4:15 PM 17.6 °F 0.1 °F 8.6 °F 68% 29.79 in 10.0 mi NW 23.0 mph 28.8 mph N/A   Overcast
4:35 PM 15.8 °F -1.5 °F 8.6 °F 73% 29.79 in 10.0 mi NW 20.7 mph 26.5 mph N/A   Overcast
4:55 PM 15.8 °F -0.6 °F 8.6 °F 73% 29.79 in 10.0 mi NW 18.4 mph 25.3 mph N/A   Overcast
5:15 PM 15.8 °F -0.6 °F 8.6 °F 73% 29.80 in 10.0 mi NW 18.4 mph - N/A   Overcast
5:35 PM 14.0 °F -2.5 °F 6.8 °F 73% 29.80 in 10.0 mi NW 17.3 mph 27.6 mph N/A   Mostly Cloudy
5:55 PM 14.0 °F -2.5 °F 6.8 °F 73% 29.81 in 10.0 mi NW 17.3 mph 21.9 mph N/A   Mostly Cloudy
6:15 PM 12.2 °F -6.7 °F 6.8 °F 79% 29.82 in 10.0 mi WNW 21.9 mph 25.3 mph N/A   Mostly Cloudy
6:35 PM 12.2 °F -7.1 °F 6.8 °F 79% 29.82 in 10.0 mi NW 23.0 mph 28.8 mph N/A   Scattered Clouds
6:55 PM 10.4 °F -9.5 °F 5.0 °F 79% 29.82 in 10.0 mi NW 23.0 mph 29.9 mph N/A   Clear
7:15 PM 10.4 °F -8.2 °F 3.2 °F 73% 29.83 in 10.0 mi NW 19.6 mph 24.2 mph N/A   Clear
7:35 PM 10.4 °F -9.1 °F 3.2 °F 73% 29.83 in 10.0 mi NW 21.9 mph 27.6 mph N/A   Clear
7:55 PM 8.6 °F -10.0 °F 3.2 °F 79% 29.83 in 10.0 mi NW 18.4 mph 25.3 mph N/A   Clear
8:15 PM 8.6 °F -10.5 °F 3.2 °F 79% 29.83 in 10.0 mi NW 19.6 mph 26.5 mph N/A   Clear
8:35 PM 8.6 °F -8.9 °F 3.2 °F 79% 29.83 in 10.0 mi NW 16.1 mph 21.9 mph N/A   Scattered Clouds
8:55 PM 8.6 °F -9.5 °F 3.2 °F 79% 29.83 in 10.0 mi NW 17.3 mph - N/A   Mostly Cloudy
9:15 PM 6.8 °F -11.8 °F 1.4 °F 79% 29.83 in 10.0 mi WNW 17.3 mph - N/A   Mostly Cloudy
9:35 PM 6.8 °F -11.8 °F 1.4 °F 79% 29.84 in 10.0 mi WNW 17.3 mph 23.0 mph N/A   Mostly Cloudy
9:55 PM 6.8 °F -12.4 °F 1.4 °F 79% 29.85 in 10.0 mi WNW 18.4 mph - N/A   Overcast
10:15 PM 6.8 °F -12.9 °F 1.4 °F 79% 29.85 in 10.0 mi WNW 19.6 mph 23.0 mph N/A   Mostly Cloudy
10:35 PM 6.8 °F -13.4 °F -0.4 °F 72% 29.86 in 10.0 mi NW 20.7 mph 26.5 mph N/A   Scattered Clouds
10:55 PM 5.0 °F -15.2 °F -0.4 °F 78% 29.86 in 10.0 mi NW 19.6 mph - N/A   Scattered Clouds
11:15 PM 5.0 °F -15.2 °F -0.4 °F 78% 29.86 in 10.0 mi NW 19.6 mph 23.0 mph N/A   Scattered Clouds
11:35 PM 5.0 °F -15.2 °F -0.4 °F 78% 29.87 in 10.0 mi NW 19.6 mph 25.3 mph N/A   Scattered Clouds
11:55 PM 3.2 °F -15.3 °F -0.4 °F 85% 29.87 in 10.0 mi WNW 15.0 mph 25.3 mph N/A   Scattered Clouds